Wind_Speed
58 60 61 63 64 65 65 64 64 63 62 60 60 60 60 60 60 59 59 58 58 58 59 59 60 62 65 65 65 64 64 64 65 65 64 61 57 54 53 53 53 53 53 53 52 51 50 49 48 48 47 46 46 45 45 44 44 43 42 40 38 35 33 33 32 30 29 28 26 24 23 23 24 24 25 25 24 22 20 22 25 26 26 26 26
59 61 63 64 65 66 65 65 65 64 63 62 62 61 61 61 61 61 60 60 60 60 60 61 63 65 67 66 65 65 65 64 63 62 59 56 54 53 53 53 53 53 52 52 51 50 49 49 48 47 46 46 45 45 44 44 43 42 40 38 35 33 32 31 29 29 28 26 24 22 21 22 22 22 22 23 24 24 23 23 25 25 26 26 26
60 62 64 65 65 65 65 65 65 64 64 64 64 64 64 64 63 63 63 63 63 62 62 63 65 67 67 66 65 65 64 63 60 58 56 54 54 53 53 52 52 52 51 51 50 49 49 48 47 46 46 45 45 44 43 43 42 40 37 34 32 31 30 29 28 28 26 24 23 21 20 21 21 21 21 23 25 25 25 24 25 25 25 25 25
62 63 64 65 65 65 65 65 65 65 65 66 66 66 66 66 66 66 66 66 65 64 64 65 66 67 66 65 64 63 62 60 57 56 55 54 53 53 52 52 52 51 51 50 50 49 49 48 47 47 46 44 44 43 43 41 39 37 33 31 30 30 29 28 28 28 26 24 22 20 19 20 22 22 22 24 25 26 25 24 24 24 24 24 24
65 66 66 66 67 67 67 66 66 66 66 66 66 67 67 67 67 67 68 67 67 65 65 66 66 66 65 64 62 60 59 57 56 55 54 54 53 52 52 51 51 51 51 50 50 50 49 48 47 47 45 43 42 42 40 38 36 33 30 29 29 29 28 28 28 27 25 23 21 20 19 20 22 22 24 25 25 25 24 23 23 23 24 23 23
69 70 70 70 70 69 70 69 68 67 66 66 66 67 67 68 68 69 69 68 67 65 65 65 66 65 64 62 60 58 57 56 55 54 54 53 53 52 52 51 51 51 51 51 50 50 49 48 47 45 43 42 41 39 37 35 33 30 29 29 28 27 27 28 27 26 24 22 21 21 20 20 21 21 23 24 24 23 22 22 22 22 22 22 21
72 72 71 72 71 70 70 70 70 69 68 67 67 67 68 68 69 70 69 68 67 65 65 65 64 63 62 59 57 56 56 55 55 54 54 53 52 52 52 51 51 51 51 51 50 49 48 47 45 43 42 40 37 35 34 33 31 29 29 28 27 26 27 27 25 24 23 22 21 21 21 21 21 21 21 22 22 21 21 21 21 21 21 21 20
72 72 71 72 71 70 70 69 70 69 69 68 68 68 68 69 69 70 69 68 66 65 64 63 62 61 59 57 56 55 55 55 54 54 53 53 52 52 52 52 52 52 52 51 50 48 46 43 42 41 39 36 34 33 32 31 29 28 27 26 25 25 26 25 24 23 22 21 21 22 23 22 22 22 21 21 20 20 21 21 21 20 20 21 19
71 71 71 71 71 71 71 70 70 70 70 69 68 67 67 68 69 69 68 67 65 64 63 61 60 59 57 56 56 55 55 55 54 54 53 53 53 53 53 53 52 52 51 50 48 44 42 40 39 37 34 32 32 32 30 28 27 26 26 25 24 25 25 24 23 22 21 20 21 23 24 23 22 22 21 19 19 19 20 21 20 19 20 20 18
70 70 70 71 71 71 71 70 70 69 69 68 67 66 66 67 68 67 66 64 63 62 60 59 58 58 57 56 56 56 55 55 54 54 54 54 54 54 54 53 52 51 50 47 43 39 39 37 34 31 30 31 31 29 27 26 26 25 25 25 24 24 24 24 23 22 21 21 22 24 24 23 22 22 19 18 18 19 20 21 20 19 19 19 17
68 68 68 68 68 67 67 66 66 65 65 65 64 65 65 66 65 64 63 61 60 60 59 58 58 58 57 57 56 56 56 55 54 54 55 55 55 55 54 53 51 49 46 41 38 37 36 32 29 28 29 29 28 26 26 27 27 26 26 25 24 24 24 24 24 23 22 22 23 24 24 23 22 21 19 18 19 20 21 21 20 19 19 19 17
64 64 64 64 63 63 62 62 62 62 62 62 62 63 63 63 62 61 60 59 59 59 58 58 58 58 58 58 57 56 55 55 55 55 55 55 55 55 54 52 49 44 40 37 36 34 30 28 28 28 28 27 26 27 28 29 28 27 26 25 24 23 24 25 25 24 23 23 24 25 24 23 21 20 19 19 21 22 22 22 20 19 19 18 17
61 61 61 61 60 59 59 59 60 59 60 60 61 61 61 60 59 59 59 59 59 59 59 59 58 58 58 58 57 56 55 55 55 55 55 55 54 53 52 48 43 38 36 35 33 29 26 27 28 28 27 26 27 30 31 30 29 28 26 25 25 25 25 26 26 25 24 24 25 25 24 22 20 20 20 21 23 23 22 21 21 20 19 18 17
61 61 61 60 59 59 59 59 59 59 59 59 60 60 59 59 58 59 59 59 59 60 59 59 59 59 58 58 57 56 55 55 55 54 54 53 52 51 46 41 35 33 33 31 27 25 25 26 28 29 27 27 30 32 31 30 29 27 26 26 26 26 27 27 27 26 25 25 26 25 23 20 19 20 21 22 22 21 21 21 21 20 19 18 17
61 61 61 60 60 60 59 59 59 60 60 60 60 60 60 59 59 59 60 60 60 60 59 59 59 58 58 58 57 56 55 55 54 53 52 50 48 44 38 34 31 30 29 26 24 24 25 27 28 28 27 29 31 31 31 30 28 27 26 26 26 27 27 27 27 27 27 26 26 25 22 20 19 20 21 21 21 20 21 22 21 20 19 18 17
62 62 62 62 61 61 61 60 60 60 61 61 60 60 60 60 60 60 60 61 60 60 59 58 58 57 57 57 56 55 54 53 51 49 47 45 41 36 33 30 29 27 24 22 22 24 25 27 28 27 28 30 31 30 29 28 27 25 25 24 25 26 27 27 27 27 28 27 26 25 22 20 20 21 21 21 20 20 22 22 21 20 19 18 18
61 61 61 61 61 61 61 61 61 61 62 61 61 61 61 61 60 60 61 60 60 59 58 57 57 56 56 55 54 53 50 48 46 44 41 37 34 32 30 29 27 23 20 20 22 24 25 26 27 27 28 31 31 30 29 27 25 24 23 23 24 26 27 27 27 28 28 28 27 24 22 20 20 20 20 20 21 22 23 23 21 20 20 19 18
52 53 55 56 57 58 59 60 61 61 61 61 61 61 61 61 60 60 59 59 58 57 56 55 54 53 52 51 49 47 45 42 40 37 35 32 32 31 30 29 24 19 18 20 23 24 25 26 27 27 29 31 31 31 30 27 25 22 21 22 24 25 26 27 28 29 29 28 26 23 21 20 20 19 20 21 22 23 23 23 22 20 20 20 19
41 44 49 52 52 54 56 57 57 58 57 57 57 59 59 58 58 57 56 55 54 53 51 50 48 47 46 45 43 41 38 36 34 32 31 30 29 29 29 26 20 17 19 21 23 25 26 27 28 29 30 32 32 31 30 27 24 22 21 21 23 24 26 27 28 29 28 26 22 20 20 20 20 21 21 22 23 24 24 23 22 22 21 20 20
31 32 39 46 48 49 49 50 51 50 50 49 51 53 53 52 51 50 48 48 46 44 42 41 39 39 38 37 35 33 31 30 29 28 27 25 26 28 25 20 17 19 20 22 24 25 26 28 29 30 32 33 33 32 30 27 26 23 22 22 24 25 26 27 27 26 24 22 20 20 21 22 22 23 23 23 24 24 25 24 23 23 22 20 20
28 28 30 34 40 43 43 42 42 43 44 44 45 45 43 42 40 39 38 38 36 34 32 31 30 30 29 28 27 26 26 26 24 22 20 21 23 23 19 18 20 21 23 25 26 27 27 28 30 33 34 34 33 33 31 28 26 25 24 24 25 26 26 25 23 22 21 21 22 22 22 23 23 22 23 24 25 26 27 26 25 25 22 20 20
33 32 30 29 29 29 32 35 35 35 36 35 34 34 34 35 34 33 31 29 27 25 25 25 25 25 24 23 23 21 21 20 18 18 18 19 21 19 18 20 23 23 25 28 28 28 28 29 31 35 36 35 34 33 31 28 25 25 25 25 26 25 23 21 20 20 21 22 23 22 22 22 22 23 24 26 28 29 29 28 26 24 21 20 21
40 38 35 34 31 26 26 29 29 29 32 33 30 29 31 33 34 30 25 24 22 22 23 24 24 23 23 21 17 14 14 15 16 19 19 18 19 20 21 23 24 25 28 30 30 30 29 30 33 35 37 36 34 33 31 27 24 24 24 25 24 22 19 19 21 22 22 22 22 22 22 23 24 26 27 29 30 31 30 29 26 23 20 20 21
45 43 40 38 35 32 30 31 31 33 36 34 31 32 33 32 29 26 24 24 23 23 25 25 25 23 22 16 12 13 13 14 18 20 19 20 22 22 23 24 25 26 29 32 32 31 30 32 34 35 37 36 34 33 31 27 23 23 24 24 21 18 18 19 22 23 23 23 23 24 24 25 27 28 30 31 32 32 30 27 24 21 19 19 19
46 44 44 41 37 33 31 32 30 31 35 34 33 33 32 27 25 27 26 25 23 24 27 27 25 22 20 16 15 16 14 16 20 21 21 23 24 24 24 24 26 28 31 33 33 32 31 33 35 36 36 35 33 33 32 28 24 23 25 23 18 17 19 20 23 24 25 24 24 25 25 26 28 30 31 32 32 30 27 23 21 18 17 16 15
46 42 41 39 37 36 34 34 31 30 33 33 33 30 27 26 28 30 25 23 23 25 28 26 23 21 20 19 19 16 16 20 23 23 24 26 25 24 24 25 28 30 32 33 33 32 33 35 36 36 35 34 33 33 32 28 24 24 25 22 17 18 21 23 25 26 26 24 25 25 25 26 28 29 30 30 28 24 22 19 17 15 13 13 13
47 44 41 37 36 37 37 37 36 34 33 33 31 27 25 28 31 31 27 26 25 27 27 23 22 23 21 18 18 18 21 24 25 27 27 24 23 22 23 26 29 30 32 34 33 32 34 36 37 36 35 33 33 32 32 28 23 23 24 20 18 20 23 26 27 26 25 24 24 24 23 25 27 28 28 27 23 19 16 15 12 10 9 10 10
48 49 49 46 43 37 34 35 36 36 34 32 28 21 21 28 35 34 31 29 28 29 26 22 22 23 19 17 19 23 26 26 28 29 24 21 22 22 24 27 29 30 32 33 32 34 36 38 37 36 34 33 33 32 30 27 23 23 22 19 18 21 23 25 26 24 23 22 22 23 24 25 27 27 28 24 17 13 12 11 10 7 7 8 7
47 49 51 54 52 41 34 32 33 33 30 30 28 24 25 32 38 34 29 29 29 27 22 21 20 18 18 18 20 24 27 29 30 27 22 21 23 24 26 28 29 31 32 32 33 36 38 38 37 36 35 34 33 32 29 25 21 21 21 18 19 20 20 23 25 25 23 22 22 23 23 25 26 27 24 19 12 9 10 10 8 6 8 8 8
46 46 49 53 52 45 38 32 32 33 30 31 31 27 28 33 35 29 24 24 24 21 17 17 16 15 18 19 22 27 29 33 32 26 23 24 25 27 29 29 31 31 32 34 36 37 37 37 37 37 36 34 33 31 28 24 20 20 20 19 19 18 17 19 24 25 23 21 22 23 24 24 26 25 19 14 10 9 9 9 7 7 9 10 11
44 44 48 50 49 47 42 35 37 38 35 34 32 28 29 31 31 28 25 24 20 17 16 16 15 14 20 23 27 29 32 35 31 24 24 26 28 29 30 30 32 32 33 35 37 37 36 37 39 40 38 34 33 31 27 23 19 19 19 18 18 16 14 14 19 23 22 20 21 24 24 25 26 22 17 14 11 10 11 11 10 10 12 14 16
44 45 48 48 48 47 45 43 43 42 37 34 31 29 30 29 27 25 24 22 18 18 18 18 18 20 24 27 28 28 29 30 26 25 28 29 28 29 31 32 33 34 35 36 36 35 35 38 42 44 40 35 33 30 25 21 19 19 18 17 16 15 14 15 17 19 19 19 22 24 24 25 25 20 16 16 13 12 12 13 13 15 17 19 20
44 46 50 50 50 49 48 48 49 46 38 33 30 30 32 30 26 24 22 19 18 19 19 19 19 22 27 25 24 24 21 21 23 28 33 30 27 30 33 33 34 35 36 35 33 33 36 41 46 46 42 38 34 29 24 20 19 19 19 17 17 16 15 17 17 17 18 20 23 23 24 24 21 15 14 16 16 16 15 15 14 14 15 16 17
44 47 51 52 52 52 52 51 51 50 44 37 34 33 32 30 27 26 25 22 21 19 19 18 18 23 27 23 21 20 15 16 23 29 32 31 31 35 36 36 36 35 35 33 31 33 39 44 48 48 44 40 35 29 23 20 18 19 19 18 18 18 17 17 18 19 20 22 23 22 22 20 17 14 14 16 17 18 18 16 15 13 13 12 12
45 47 51 54 55 54 55 54 50 51 50 44 38 35 33 32 31 29 26 23 23 22 19 18 17 21 24 20 17 18 19 22 24 28 31 33 35 37 36 34 33 33 33 31 31 36 43 48 50 49 47 42 35 28 23 19 18 18 18 18 17 19 19 18 18 19 20 21 21 20 18 15 14 15 16 16 17 18 18 17 16 15 14 12 13
46 49 53 55 56 54 53 55 54 52 52 50 46 40 37 37 36 33 28 25 25 25 23 20 17 19 22 22 19 23 27 26 22 25 29 30 31 33 33 32 32 32 30 29 34 41 48 51 51 50 49 43 34 28 23 19 18 19 19 19 19 20 20 19 20 20 19 19 18 17 14 13 15 16 17 18 19 19 19 19 18 17 15 15 18
48 52 57 57 55 52 49 51 54 54 54 54 52 47 43 42 41 38 35 32 29 27 25 22 20 23 27 27 25 28 27 22 20 25 25 23 24 27 28 29 32 30 28 32 39 46 52 52 51 52 50 44 35 29 23 19 18 19 20 21 21 21 20 20 21 20 18 16 16 16 14 14 17 19 19 20 19 20 21 21 18 16 16 18 20
50 54 60 61 58 53 48 46 49 52 53 54 55 52 48 46 46 45 43 40 36 31 27 24 24 28 29 27 26 27 24 18 21 28 26 24 27 28 26 28 30 29 32 39 45 51 54 53 53 54 52 45 37 30 24 19 18 20 21 22 22 21 20 21 21 19 18 16 15 15 15 16 19 20 20 20 21 22 24 22 18 16 17 19 21
52 57 61 62 62 58 52 48 48 49 51 52 55 55 50 46 45 46 45 44 42 36 31 29 30 31 29 26 24 25 24 22 26 31 29 31 34 31 29 33 33 34 40 46 51 55 54 54 55 56 54 47 39 31 25 21 19 21 22 23 23 22 22 22 21 18 17 17 16 15 16 19 21 21 21 21 23 25 25 23 20 19 20 21 24
52 59 63 62 62 62 58 55 52 50 50 51 53 54 51 46 43 43 43 42 39 35 34 34 34 32 29 26 26 27 28 30 34 35 35 37 35 28 31 36 38 40 46 52 58 58 55 57 58 57 56 50 40 31 25 22 20 21 23 23 23 23 23 22 20 18 17 18 18 18 19 20 22 23 22 23 25 25 24 22 21 21 23 25 27
53 57 63 63 62 63 62 60 58 55 52 50 50 52 51 49 44 43 42 39 35 32 32 32 32 31 31 31 31 32 34 37 39 40 41 39 30 28 34 38 40 44 52 60 62 59 57 59 60 59 58 51 41 31 26 22 21 22 23 23 23 22 23 22 20 18 18 18 19 21 22 22 23 24 22 24 25 23 22 23 23 23 25 28 30
53 56 60 63 62 63 63 63 62 60 56 51 49 49 50 51 48 45 43 42 39 35 33 32 32 32 32 32 33 35 38 40 42 45 43 35 30 33 38 39 43 52 61 65 62 60 61 61 61 61 58 50 40 32 26 23 22 23 23 23 23 23 24 24 22 20 18 19 20 22 24 24 25 24 24 25 25 22 21 23 24 24 25 27 28
52 55 57 61 62 62 62 62 63 63 61 55 50 49 50 50 49 46 45 45 43 40 38 36 38 40 38 38 40 42 44 44 45 44 38 35 36 38 40 45 54 63 66 65 62 62 62 63 63 61 56 47 38 32 28 23 23 24 24 24 25 25 26 25 24 22 21 21 22 23 26 27 26 26 26 26 26 24 22 21 22 24 25 27 28
50 51 54 59 62 62 60 57 59 61 63 60 54 52 52 49 47 46 44 44 45 45 41 35 37 42 42 43 44 43 42 40 39 38 37 40 42 44 50 58 66 67 65 63 63 64 64 65 63 58 52 44 37 32 28 24 23 25 25 24 25 26 26 26 26 25 25 24 24 25 26 28 29 28 28 29 29 28 26 26 25 24 25 27 27
47 49 53 57 60 61 60 56 55 56 58 57 53 52 53 50 47 47 43 41 42 43 40 35 36 40 39 37 37 36 37 37 37 39 42 46 51 58 65 69 68 66 64 65 65 65 65 64 59 54 48 41 36 32 29 25 24 24 25 25 26 28 28 27 28 28 28 28 27 26 26 28 30 30 30 30 30 31 30 30 29 27 26 26 26
45 47 51 56 57 58 59 59 57 57 56 54 50 50 53 54 52 51 50 48 47 46 45 40 38 39 37 35 37 40 42 45 48 52 56 60 65 69 70 68 66 65 66 67 68 66 64 59 55 50 45 39 34 32 29 27 26 26 27 27 28 29 29 29 29 29 30 29 27 27 28 29 31 31 31 31 31 33 33 33 33 32 30 29 29
45 46 49 55 57 57 61 63 63 63 63 60 55 51 53 57 58 57 56 57 57 57 55 48 41 43 45 46 49 51 53 55 59 62 65 67 68 68 67 66 67 68 69 69 68 64 59 55 51 47 42 38 34 32 31 29 28 28 29 30 30 31 31 31 30 29 29 30 30 31 33 33 33 33 33 34 35 36 36 36 36 35 34 35 34
48 53 56 58 59 58 61 66 68 68 68 65 61 55 52 54 56 56 56 55 55 56 54 48 47 50 54 56 59 61 62 62 63 65 67 68 68 68 69 69 70 71 70 68 64 59 55 52 48 44 41 37 34 32 31 30 30 30 30 30 30 31 32 32 31 30 31 33 34 34 35 35 34 34 34 36 38 39 39 38 37 36 37 38 38
52 59 64 66 64 58 55 61 68 71 72 70 66 61 58 53 50 52 54 50 47 47 47 46 50 54 57 59 60 62 64 63 64 67 69 70 71 71 71 71 72 71 68 64 60 56 52 48 45 42 39 36 34 32 32 32 31 31 31 31 31 31 33 34 34 34 35 36 36 37 37 36 36 35 36 37 38 39 40 39 38 38 39 40 41
55 60 64 68 69 63 57 59 63 66 69 69 66 64 65 61 55 55 56 53 50 49 48 48 50 54 56 58 59 60 62 64 66 69 70 70 70 70 71 72 71 67 64 60 56 52 48 45 42 39 37 35 34 32 32 32 32 32 32 32 31 32 33 34 35 36 37 37 37 38 38 38 38 37 37 37 37 38 39 39 39 38 39 41 42
54 59 64 68 71 69 66 65 65 65 65 62 58 58 62 65 64 64 63 60 57 56 55 53 54 57 59 62 64 65 67 69 70 71 71 71 70 71 72 70 66 63 59 55 51 48 44 42 39 37 36 35 34 33 32 32 32 32 32 32 32 33 34 34 34 35 35 36 37 37 38 38 38 38 37 37 37 37 37 38 38 39 40 41 43
Wind_Direction
271 271 271 272 273 274 275 276 278 279 280 281 282 283 284 286 287 289 291 294 293 291 289 289 290 293 296 298 299 299 299 298 298 299 300 301 302 303 304 306 306 307 308 309 310 311 311 311 312 312 312 311 311 311 311 311 311 310 309 307 305 303 301 301 300 297 293 292 287 283 283 282 279 276 278 281 280 279 289 301 302 301 305 309 310
272 272 272 272 273 273 274 275 276 278 279 280 282 283 285 286 288 290 292 293 293 291 290 290 291 294 296 298 298 299 298 298 299 299 300 301 302 304 305 306 307 308 308 309 310 311 311 311 312 312 311 311 311 311 311 311 310 309 308 306 304 302 301 300 297 293 292 289 282 280 283 283 281 279 280 280 278 280 289 297 299 302 307 311 312
273 274 274 274 274 274 274 275 276 278 279 280 281 283 285 287 288 290 292 293 294 292 290 290 292 294 296 297 298 298 298 298 299 299 300 301 303 304 305 306 307 307 308 309 310 311 311 311 311 311 311 311 311 311 310 309 309 308 307 306 303 302 301 298 293 291 290 284 277 279 284 284 281 277 273 271 275 282 287 291 295 300 306 309 310
274 275 276 276 276 276 276 276 277 278 280 281 282 283 285 287 288 290 291 293 293 292 291 291 293 295 296 297 297 297 297 298 298 299 300 301 303 304 305 306 307 307 308 309 309 310 311 311 311 310 310 310 310 310 309 308 308 308 307 304 303 302 299 294 291 289 287 279 274 279 284 284 283 279 274 274 278 281 284 286 291 296 303 308 308
274 275 276 277 277 277 277 278 278 279 280 281 282 283 285 286 288 290 291 292 293 292 292 292 293 294 295 296 296 296 296 297 298 299 300 301 303 304 305 306 307 307 308 309 310 310 311 310 310 309 309 309 309 309 308 308 308 308 306 304 304 302 296 292 290 288 283 275 272 278 285 287 286 282 280 279 280 281 282 284 288 295 303 307 307
274 275 276 276 277 276 276 277 278 279 280 281 282 284 285 286 288 289 291 292 292 292 292 293 293 294 295 295 295 295 295 296 298 299 300 302 303 304 305 306 307 307 308 309 310 310 310 309 308 308 308 308 308 308 308 309 309 308 306 305 304 299 293 290 289 286 280 273 272 279 287 292 290 284 280 279 281 281 281 282 287 294 302 306 307
273 274 275 276 277 277 276 277 277 279 280 281 283 284 285 287 288 289 291 292 292 292 292 293 293 293 294 294 294 295 295 297 298 299 301 303 304 304 305 306 307 307 308 309 310 310 309 308 307 306 307 308 309 309 310 309 309 308 307 305 301 295 291 291 290 287 280 274 274 280 287 293 293 288 282 281 283 281 278 280 286 293 301 305 304
273 273 274 275 276 277 278 278 279 280 281 283 284 285 285 287 289 290 291 291 292 292 292 292 292 292 293 293 294 295 296 298 299 300 302 303 304 304 305 305 307 307 308 309 310 309 307 306 306 307 308 310 311 311 311 310 311 310 308 305 299 293 292 292 291 289 283 279 278 282 287 291 294 292 286 283 283 278 275 277 285 293 300 303 300
273 273 274 274 275 277 278 279 280 282 283 285 286 286 287 288 289 290 290 291 291 291 291 291 291 292 293 294 295 296 297 299 300 302 303 303 304 304 304 305 307 308 308 309 309 307 306 305 307 310 312 313 313 312 313 314 314 312 309 304 297 293 293 293 294 291 286 284 284 286 288 290 294 294 288 284 280 275 273 278 286 292 299 300 295
273 273 274 275 275 276 278 279 281 282 284 285 286 287 288 289 289 290 290 290 290 290 290 290 291 292 293 295 296 297 298 300 301 302 303 303 303 303 304 306 308 308 308 308 307 306 306 308 311 314 315 315 315 315 317 318 316 312 310 305 297 293 293 295 296 293 288 286 287 289 290 292 296 294 286 280 276 273 275 281 286 290 299 298 292
273 274 275 276 277 278 279 281 282 283 284 286 287 288 288 289 289 289 290 290 290 290 290 291 292 293 295 296 297 298 299 300 302 302 303 302 303 303 304 306 308 307 307 306 306 307 309 312 316 318 319 318 318 320 321 319 316 311 309 305 297 293 294 297 297 292 288 286 287 288 291 293 294 290 279 275 274 275 279 283 286 290 298 297 290
274 275 276 277 279 280 281 282 283 284 285 286 287 287 287 288 288 289 289 289 289 290 291 292 293 295 296 296 297 299 300 300 301 301 301 301 302 303 305 306 307 306 305 305 306 310 314 317 320 322 321 321 323 324 322 318 314 310 308 303 297 295 296 297 296 292 288 287 287 289 292 293 291 283 273 272 274 278 281 283 285 290 297 295 288
275 277 278 280 281 283 284 284 285 286 286 286 286 287 287 287 288 289 289 289 289 290 292 293 294 296 296 297 298 299 299 299 300 300 300 300 301 303 305 305 306 305 304 305 310 314 318 322 323 324 323 325 327 325 321 317 312 309 306 301 295 294 295 295 295 293 291 290 289 291 294 292 287 278 272 272 276 280 282 284 286 290 295 292 285
277 279 280 282 283 285 285 286 286 287 287 286 287 287 287 288 288 288 288 289 290 291 292 294 295 296 296 297 298 298 298 298 298 298 298 299 301 303 304 305 305 304 305 308 313 318 323 325 325 325 326 329 330 326 320 315 311 307 304 299 294 293 294 294 294 293 293 292 291 293 293 288 282 275 273 275 279 282 283 286 288 290 295 291 283
281 282 283 284 285 286 286 287 287 287 287 287 287 287 288 288 288 288 288 289 290 291 293 294 295 296 297 297 297 296 296 296 297 297 298 299 301 302 303 305 305 306 309 312 317 322 325 326 326 327 330 332 331 326 321 315 311 306 303 298 293 292 293 293 294 294 294 294 292 292 290 286 281 278 279 280 280 282 285 288 289 291 295 291 282
284 285 285 286 286 287 287 288 288 289 288 288 289 288 288 288 288 288 288 289 290 292 293 294 295 296 296 296 295 295 295 295 295 296 297 299 299 301 303 304 306 309 312 315 322 326 327 328 329 330 333 334 332 328 323 317 311 306 302 297 293 292 293 294 295 296 296 295 293 290 287 284 282 282 283 282 282 283 287 289 289 291 293 290 282
287 287 286 286 287 288 288 289 289 288 288 288 288 287 287 286 286 287 288 289 290 291 292 294 295 295 295 295 295 295 295 295 295 295 296 296 298 300 301 302 307 312 316 322 328 330 330 331 332 333 336 336 333 330 326 319 312 306 300 295 293 293 294 296 297 297 296 295 293 289 286 284 283 283 284 283 283 284 287 289 288 289 291 289 281
289 286 286 287 288 288 288 288 287 286 286 286 286 285 284 284 285 286 287 287 289 290 292 294 295 295 295 295 295 295 294 294 293 293 293 294 297 299 299 302 308 315 323 330 333 334 333 334 335 336 337 338 336 333 329 322 314 306 299 295 294 295 297 299 300 299 297 296 294 291 290 288 287 285 284 284 284 285 287 289 288 288 291 287 279
286 285 286 287 288 288 286 284 284 284 284 285 284 283 283 283 284 285 286 288 289 291 293 294 295 295 296 296 295 294 294 292 291 290 291 293 295 296 298 303 313 323 331 336 336 336 335 336 338 337 337 339 339 337 331 323 315 306 299 295 296 299 302 304 302 300 298 297 295 294 294 292 291 289 288 287 287 288 290 292 289 289 291 286 278
270 276 281 288 291 288 285 284 284 284 285 284 281 281 282 282 283 286 288 289 290 292 294 295 297 297 297 296 295 294 292 290 289 290 291 293 295 297 301 309 321 327 333 338 338 338 337 338 339 338 337 340 341 339 334 326 318 310 304 301 302 305 308 307 303 300 299 298 297 297 296 294 293 293 293 293 293 295 297 296 292 290 291 285 276
246 252 264 280 289 290 290 288 287 291 291 285 281 282 282 284 287 291 292 292 293 295 296 298 299 301 301 298 296 293 289 288 289 291 294 297 300 301 305 317 324 327 332 336 338 338 339 339 339 339 338 340 342 341 338 332 324 318 313 310 311 313 313 310 304 301 301 300 299 298 296 294 293 295 296 297 297 299 300 298 293 290 288 282 274
243 244 246 254 267 281 289 290 294 299 292 281 280 284 286 291 296 299 300 300 300 299 299 300 303 304 303 299 296 290 286 286 288 294 300 304 305 303 306 317 322 325 330 333 336 337 338 339 338 338 340 341 342 343 342 337 330 324 320 317 316 317 315 311 304 301 301 300 299 297 295 293 291 293 294 295 297 298 298 296 292 288 283 277 272
247 244 242 245 248 251 258 269 279 280 275 272 277 284 290 296 299 300 303 305 303 300 299 300 302 303 300 297 291 284 284 285 287 297 302 303 304 305 306 314 319 322 327 330 333 334 336 338 338 339 340 342 343 345 344 338 331 327 324 321 320 319 314 309 304 301 300 297 296 294 291 289 289 291 292 293 295 297 297 293 288 283 278 276 275
248 244 242 245 248 247 246 249 255 263 266 271 281 288 292 295 298 300 299 299 297 297 299 298 298 299 298 292 279 283 286 280 286 295 298 299 302 305 306 310 316 320 325 327 330 332 334 335 337 339 340 342 343 345 344 338 331 329 327 325 322 315 309 307 303 299 296 294 292 292 290 290 290 291 292 294 296 297 295 289 283 278 277 279 279
248 247 245 242 243 246 251 254 255 264 266 270 282 292 294 291 297 303 296 290 289 293 296 296 294 295 295 284 281 288 280 277 288 292 294 298 301 304 305 307 313 319 321 324 327 329 330 333 336 338 340 341 342 344 343 338 332 330 330 327 319 307 305 303 299 296 294 292 291 293 294 294 294 294 296 298 300 298 291 282 276 277 283 285 283
246 246 243 238 237 238 247 255 255 260 264 269 279 289 292 284 291 297 287 277 279 285 291 290 285 288 290 282 284 284 276 284 292 293 295 297 298 300 301 305 311 315 318 322 326 326 328 331 334 337 339 340 341 342 343 339 333 331 331 326 314 304 302 298 295 295 295 295 295 297 300 301 302 302 303 304 303 296 284 276 276 284 291 288 286
243 240 237 235 236 238 241 246 250 255 263 274 279 282 284 281 285 287 276 269 272 278 284 280 274 282 284 274 275 276 280 289 293 294 294 292 294 295 299 305 309 313 317 321 322 323 326 328 332 336 338 338 339 342 343 339 333 331 330 324 311 304 303 299 298 298 299 303 304 305 308 307 308 309 310 309 303 291 278 273 281 289 292 295 294
243 239 238 239 240 242 243 244 251 256 261 274 275 267 270 275 277 276 270 268 271 276 278 272 272 277 271 260 264 274 283 290 294 294 289 287 291 293 298 304 308 312 316 318 318 320 323 326 330 334 335 335 336 341 343 338 333 332 329 320 308 305 307 305 304 304 306 314 315 313 314 312 311 313 313 311 301 287 276 277 285 279 283 294 289
242 240 239 242 241 240 246 248 251 252 252 261 263 256 258 263 268 269 265 266 269 271 273 273 272 267 258 258 268 280 289 294 296 290 280 284 291 295 300 304 308 311 312 313 314 316 320 324 329 332 333 333 335 340 342 338 333 331 325 314 307 307 311 311 309 309 312 321 322 318 317 314 313 314 316 316 306 292 278 280 284 272 282 280 267
240 238 236 240 240 237 244 246 246 248 242 245 251 251 248 249 257 263 259 261 265 266 268 267 265 263 261 267 280 290 295 297 295 281 274 287 294 298 301 303 305 306 307 309 310 313 318 323 327 330 330 331 332 337 340 336 332 329 320 310 308 309 312 310 306 305 310 320 321 318 316 312 312 313 317 324 323 318 300 291 288 276 280 271 269
238 233 231 235 237 237 240 236 242 247 235 232 240 241 237 240 251 257 258 263 266 261 252 244 242 245 255 271 285 292 294 293 286 272 277 289 293 298 300 301 302 302 304 306 308 311 315 321 326 328 328 327 329 334 337 333 329 325 317 309 305 303 299 288 283 293 306 315 313 312 314 314 314 310 312 324 326 322 313 303 295 281 275 271 275
234 226 225 229 231 236 235 228 235 242 234 231 238 240 237 241 252 255 258 263 257 246 237 236 237 236 251 270 280 285 289 286 275 271 282 287 289 295 297 298 298 299 301 303 305 308 313 318 323 325 325 324 326 330 333 330 325 320 314 304 295 291 287 275 274 291 301 302 303 307 312 312 312 305 298 308 312 310 306 297 291 284 277 273 272
230 221 220 224 227 231 232 228 233 238 237 236 235 235 237 242 249 250 253 254 245 240 239 241 247 255 264 271 273 277 284 281 275 281 286 285 289 295 295 295 295 296 298 299 301 305 311 315 320 323 323 322 323 325 329 327 321 316 308 299 290 285 281 279 286 293 289 288 296 305 311 310 311 305 287 288 291 291 293 291 289 286 284 280 273
225 217 218 223 225 229 233 234 236 234 234 234 231 231 235 240 244 247 251 249 245 246 246 247 256 266 268 269 269 272 273 268 276 283 282 282 290 295 294 293 292 293 294 294 296 302 310 314 318 321 321 320 319 321 325 323 317 310 303 296 290 281 272 276 284 286 284 287 293 300 307 308 306 305 297 292 289 284 284 287 287 286 291 298 290
221 213 217 223 225 230 235 236 234 231 231 231 229 228 231 238 244 247 247 248 253 255 252 256 262 260 263 268 266 272 270 259 265 272 273 280 289 293 294 290 287 288 287 288 294 301 308 313 315 319 320 318 316 316 319 318 311 302 295 289 282 275 271 275 279 282 288 291 294 299 308 307 296 298 301 298 293 288 285 287 290 288 287 297 300
218 210 214 221 225 229 233 234 232 232 233 232 231 230 231 239 245 246 246 250 256 258 259 261 252 242 255 268 269 277 272 255 252 260 269 281 287 294 295 287 281 280 281 286 295 303 308 311 313 317 319 317 312 311 313 313 305 295 289 280 271 267 267 268 270 279 289 292 294 297 305 301 290 291 295 296 294 290 289 290 295 296 293 302 303
215 208 212 218 221 226 229 233 235 235 237 237 236 235 234 239 245 248 252 255 256 256 258 258 246 240 251 262 266 267 257 243 241 251 265 274 281 298 297 281 272 270 279 291 298 305 308 310 311 315 318 315 309 306 307 306 298 288 282 276 269 265 261 258 262 273 283 289 293 294 294 288 283 285 288 291 290 287 289 290 295 299 298 302 299
213 207 213 217 217 223 227 229 234 236 240 241 240 240 240 242 246 251 253 255 256 254 253 254 251 249 252 257 257 249 238 231 238 249 260 261 273 291 283 267 263 267 287 298 302 306 307 308 310 313 316 313 306 302 302 299 291 283 277 273 270 266 259 254 259 269 278 282 284 286 286 282 281 283 285 285 282 284 289 289 290 289 286 288 287
213 207 213 220 218 220 225 227 230 234 238 242 242 243 245 246 248 250 252 253 254 254 255 255 254 251 251 254 248 238 231 229 238 251 259 263 276 280 261 255 258 270 291 298 302 305 304 306 309 311 313 311 303 298 296 293 287 278 273 271 270 268 261 255 256 263 271 272 272 273 275 278 278 278 280 282 282 286 291 290 286 281 276 278 279
215 209 212 221 222 221 223 226 228 231 236 240 243 244 246 248 248 249 251 252 253 256 257 253 250 249 251 255 253 250 245 240 245 255 262 270 276 263 248 252 258 272 289 296 300 301 301 304 307 308 311 308 301 294 290 289 282 273 270 270 270 269 266 259 254 254 258 262 265 263 261 265 266 266 271 274 277 283 288 285 282 280 277 276 276
217 212 212 219 225 225 226 227 228 231 235 239 242 245 247 249 249 248 248 249 252 255 253 246 248 253 258 264 262 257 251 247 249 256 264 269 262 244 247 255 261 274 288 293 296 298 299 302 304 306 307 305 298 290 286 284 276 269 266 267 268 268 267 262 255 254 257 261 263 261 258 257 256 256 257 261 268 275 280 278 277 277 276 277 278
219 215 213 217 224 227 229 231 231 232 236 239 242 246 249 251 251 249 246 247 250 249 247 247 253 258 259 261 258 254 253 253 255 259 262 256 239 238 249 255 264 277 287 291 293 295 298 300 301 304 304 300 293 285 282 279 271 265 262 263 264 265 266 266 263 259 257 263 269 268 264 259 255 252 250 254 263 269 274 276 276 276 274 276 280
220 218 217 218 222 227 230 233 235 236 238 239 242 246 249 249 248 247 245 247 247 246 248 253 259 261 260 260 261 262 262 260 259 258 252 240 234 241 250 260 271 280 285 288 291 293 295 297 299 301 299 295 288 282 279 275 268 263 260 261 262 263 264 267 269 265 261 264 269 268 264 261 257 254 253 255 258 261 265 266 268 273 275 277 280
219 218 220 222 222 225 228 232 236 239 242 243 243 245 246 246 244 243 245 247 247 245 246 249 257 261 262 263 262 261 260 255 250 245 237 233 239 250 261 271 277 281 283 285 288 290 293 295 297 297 295 290 283 278 276 272 264 260 259 259 261 263 264 266 268 268 266 266 266 263 262 262 259 256 257 258 256 257 260 261 264 271 277 280 282
218 216 221 224 224 225 226 229 233 237 241 244 243 241 242 243 241 240 241 242 242 242 240 241 251 256 257 257 252 248 246 242 239 238 239 243 251 262 270 275 277 278 281 284 286 289 291 294 294 293 290 285 279 275 272 266 258 256 257 256 258 261 264 266 268 268 269 269 267 265 263 261 259 257 256 257 258 259 260 262 265 269 274 279 283
216 215 221 225 225 226 225 225 227 231 234 236 237 237 238 240 241 243 243 244 245 246 247 250 250 248 247 244 240 239 240 242 247 250 254 258 262 267 271 273 274 276 279 282 285 288 291 292 291 289 285 281 275 270 267 261 253 252 253 255 258 260 262 266 268 268 266 265 263 264 265 262 260 259 257 256 258 260 261 263 266 269 272 276 281
213 213 220 224 228 229 227 224 223 226 229 229 231 234 238 241 243 245 248 250 251 252 254 255 249 243 242 241 241 244 246 249 253 256 259 262 264 266 268 270 272 276 279 283 286 288 289 289 288 285 281 276 270 265 262 259 254 252 251 253 257 260 262 264 266 263 259 259 262 268 271 268 265 265 264 261 259 259 261 263 266 269 272 275 279
211 211 213 217 225 231 231 227 223 225 228 228 229 230 235 240 242 243 245 247 248 251 253 251 247 246 245 247 250 252 254 255 255 257 259 261 263 265 267 269 272 277 281 283 286 287 287 286 284 282 278 273 268 263 259 257 256 254 253 254 255 259 262 263 264 259 255 259 266 272 274 272 269 269 270 268 263 260 260 262 265 269 272 274 277
212 214 212 211 219 229 233 230 226 226 227 228 229 229 231 231 232 236 239 239 240 243 245 245 246 248 248 250 252 253 257 260 259 260 260 261 263 264 266 270 275 279 282 284 285 285 285 283 281 279 275 270 266 262 258 256 256 255 256 255 256 258 261 263 264 262 260 262 267 270 271 271 270 270 272 273 269 264 262 263 265 268 270 273 276
215 216 215 213 218 225 230 230 227 228 228 228 229 231 231 229 227 231 236 238 239 241 244 245 244 245 247 249 250 251 255 259 259 261 262 262 264 265 269 275 278 280 282 283 283 283 282 280 278 276 272 268 265 261 257 256 255 255 255 257 259 260 262 265 267 265 263 263 267 269 270 270 271 273 275 274 272 269 265 265 266 268 270 273 275
219 217 217 217 219 222 227 228 228 230 230 228 228 229 231 231 231 233 236 240 242 242 246 247 245 248 252 253 252 252 253 256 257 258 259 263 266 270 274 277 278 279 280 281 281 279 278 277 275 273 270 267 263 260 257 255 254 254 255 258 261 263 265 267 268 267 265 264 267 270 271 272 274 276 276 274 273 271 269 268 269 270 272 273 276
Height
10890 10888 10887 10886 10885 10885 10885 10886 10885 10886 10886 10887 10887 10886 10886 10885 10885 10885 10885 10884 10883 10881 10880 10877 10875 10873 10872 10871 10869 10868 10866 10864 10862 10860 10858 10857 10856 10855 10854 10851 10849 10847 10845 10843 10840 10838 10836 10834 10832 10829 10827 10824 10822 10819 10817 10815 10813 10811 10808 10806 10804 10802 10800 10798 10797 10795 10793 10792 10790 10789 10788 10787 10786 10786 10785 10783 10781 10780 10778 10775 10774 10773 10771 10770 10768
10886 10885 10884 10882 10881 10881 10881 10882 10882 10882 10883 10883 10883 10883 10882 10882 10882 10881 10882 10881 10880 10878 10876 10873 10871 10869 10868 10867 10866 10864 10862 10860 10859 10857 10855 10853 10853 10851 10850 10847 10845 10843 10842 10839 10837 10835 10832 10830 10828 10826 10824 10821 10818 10816 10813 10811 10809 10807 10804 10802 10800 10799 10797 10796 10794 10793 10791 10790 10788 10787 10786 10785 10784 10784 10784 10781 10778 10776 10775 10773 10772 10771 10769 10768 10766
10882 10881 10879 10879 10878 10877 10878 10878 10878 10879 10879 10879 10879 10879 10879 10878 10878 10878 10877 10877 10876 10874 10872 10869 10867 10866 10864 10864 10862 10860 10858 10856 10855 10853 10851 10850 10849 10848 10846 10843 10841 10839 10838 10836 10834 10831 10829 10827 10825 10823 10821 10818 10815 10812 10809 10807 10805 10803 10801 10799 10797 10796 10794 10793 10792 10791 10789 10788 10786 10785 10784 10782 10781 10782 10782 10779 10776 10774 10772 10771 10770 10769 10767 10765 10764
10878 10877 10875 10875 10874 10874 10874 10874 10874 10875 10875 10875 10875 10875 10875 10875 10874 10874 10873 10873 10872 10870 10868 10865 10863 10862 10861 10860 10859 10857 10854 10852 10851 10849 10848 10846 10845 10844 10842 10840 10838 10836 10834 10833 10831 10828 10826 10823 10821 10819 10817 10814 10811 10808 10806 10803 10801 10800 10798 10796 10795 10793 10792 10791 10789 10788 10787 10785 10784 10783 10781 10780 10779 10779 10779 10776 10774 10773 10771 10769 10768 10767 10765 10763 10762
10874 10873 10872 10871 10870 10870 10870 10870 10871 10871 10871 10871 10872 10871 10871 10871 10870 10870 10869 10868 10867 10866 10863 10861 10859 10858 10857 10856 10855 10853 10851 10849 10847 10845 10844 10843 10841 10840 10838 10836 10834 10832 10830 10829 10827 10825 10823 10820 10817 10815 10813 10811 10808 10805 10802 10800 10798 10797 10796 10794 10792 10791 10789 10788 10786 10785 10784 10783 10782 10781 10779 10778 10777 10776 10775 10773 10772 10770 10769 10767 10766 10765 10763 10761 10760
10871 10870 10869 10868 10866 10867 10866 10866 10867 10867 10867 10867 10868 10867 10867 10866 10866 10865 10864 10863 10862 10861 10859 10857 10855 10853 10853 10852 10851 10849 10847 10845 10843 10842 10840 10839 10837 10836 10834 10832 10831 10828 10827 10826 10824 10822 10819 10816 10813 10811 10809 10807 10805 10802 10799 10797 10796 10794 10793 10792 10790 10788 10787 10785 10783 10782 10781 10780 10779 10778 10777 10776 10774 10773 10772 10771 10769 10768 10767 10766 10764 10763 10761 10759 10758
10866 10866 10865 10864 10863 10863 10862 10863 10863 10863 10863 10864 10864 10864 10863 10862 10861 10860 10860 10858 10857 10856 10854 10852 10851 10850 10849 10848 10847 10845 10843 10841 10840 10838 10836 10835 10833 10832 10830 10829 10827 10825 10823 10822 10821 10818 10815 10812 10810 10807 10805 10803 10801 10799 10797 10795 10794 10792 10791 10789 10788 10786 10785 10783 10781 10780 10778 10778 10777 10776 10775 10773 10772 10771 10769 10768 10767 10766 10765 10764 10762 10761 10759 10758 10756
10862 10862 10861 10860 10860 10859 10859 10859 10859 10859 10859 10860 10860 10859 10858 10857 10857 10856 10855 10854 10853 10851 10850 10848 10846 10846 10845 10844 10842 10841 10838 10837 10836 10834 10833 10831 10829 10828 10826 10826 10824 10822 10820 10818 10817 10814 10812 10809 10807 10804 10802 10800 10798 10797 10795 10793 10791 10790 10789 10787 10786 10784 10783 10781 10779 10777 10776 10775 10774 10773 10772 10771 10770 10768 10767 10766 10765 10764 10763 10761 10760 10759 10757 10756 10755
10858 10858 10858 10857 10856 10856 10856 10856 10855 10855 10855 10856 10855 10855 10853 10853 10852 10851 10850 10849 10848 10846 10845 10844 10842 10842 10841 10840 10838 10837 10835 10833 10832 10830 10829 10827 10825 10823 10822 10822 10821 10818 10816 10814 10813 10810 10808 10806 10804 10801 10799 10797 10795 10794 10792 10791 10789 10788 10787 10785 10784 10782 10781 10779 10778 10776 10774 10773 10771 10770 10769 10768 10767 10766 10765 10764 10763 10762 10761 10759 10758 10757 10756 10755 10753
10854 10854 10854 10853 10853 10853 10853 10852 10852 10852 10852 10851 10851 10850 10849 10848 10847 10846 10845 10844 10843 10841 10841 10840 10839 10838 10837 10836 10834 10833 10831 10829 10828 10826 10824 10823 10821 10819 10818 10818 10818 10815 10812 10810 10809 10806 10804 10803 10801 10799 10797 10795 10793 10791 10790 10789 10787 10786 10785 10783 10782 10780 10779 10777 10776 10774 10773 10771 10769 10767 10766 10765 10764 10764 10763 10762 10761 10759 10758 10757 10757 10756 10754 10753 10752
10850 10851 10850 10850 10850 10850 10850 10849 10849 10849 10848 10848 10847 10846 10844 10844 10843 10842 10840 10839 10838 10837 10836 10836 10835 10834 10833 10832 10831 10829 10827 10825 10824 10822 10820 10818 10817 10815 10814 10815 10814 10812 10809 10807 10805 10803 10801 10800 10798 10797 10795 10793 10791 10789 10787 10786 10785 10784 10783 10781 10780 10778 10777 10775 10773 10772 10771 10769 10767 10766 10764 10763 10762 10761 10760 10759 10758 10757 10757 10756 10755 10754 10753 10751 10750
10847 10847 10847 10847 10847 10847 10847 10846 10846 10845 10845 10844 10843 10841 10840 10839 10838 10837 10836 10834 10833 10833 10832 10832 10832 10830 10829 10828 10827 10826 10824 10821 10820 10818 10816 10814 10812 10811 10811 10811 10811 10808 10806 10804 10802 10801 10799 10797 10796 10795 10793 10791 10789 10787 10786 10784 10783 10781 10780 10779 10777 10776 10774 10772 10771 10769 10768 10767 10765 10764 10763 10762 10761 10760 10759 10758 10757 10756 10755 10754 10754 10752 10751 10750 10749
10844 10845 10844 10844 10844 10845 10844 10843 10842 10842 10841 10840 10838 10837 10836 10835 10834 10833 10831 10830 10829 10828 10828 10828 10828 10827 10825 10824 10823 10822 10820 10817 10816 10814 10811 10809 10808 10807 10807 10807 10807 10806 10803 10801 10799 10798 10796 10795 10793 10792 10791 10789 10787 10785 10784 10782 10780 10779 10778 10776 10775 10773 10772 10770 10768 10767 10766 10764 10763 10762 10761 10760 10759 10758 10757 10757 10756 10755 10754 10753 10752 10751 10750 10748 10747
10842 10843 10842 10842 10842 10841 10840 10839 10838 10838 10837 10835 10833 10832 10831 10830 10829 10828 10826 10825 10824 10824 10824 10824 10824 10823 10821 10820 10819 10818 10816 10814 10812 10810 10807 10805 10804 10804 10804 10804 10804 10803 10800 10798 10797 10796 10794 10793 10791 10790 10789 10788 10786 10784 10781 10780 10778 10777 10775 10774 10772 10771 10769 10768 10766 10765 10763 10762 10761 10760 10759 10758 10757 10756 10756 10755 10754 10754 10753 10752 10751 10749 10748 10747 10746
10840 10840 10839 10838 10838 10837 10836 10834 10834 10833 10831 10830 10829 10827 10826 10825 10824 10823 10821 10820 10820 10820 10820 10820 10820 10819 10818 10816 10815 10814 10813 10810 10808 10806 10804 10802 10801 10801 10801 10802 10802 10800 10798 10796 10795 10793 10792 10791 10790 10788 10786 10785 10784 10782 10779 10777 10776 10774 10773 10771 10770 10768 10767 10766 10764 10762 10761 10760 10758 10758 10757 10756 10755 10755 10754 10753 10753 10752 10751 10750 10749 10748 10746 10745 10744
10837 10836 10834 10833 10833 10832 10831 10829 10828 10827 10826 10824 10823 10822 10820 10820 10818 10817 10816 10816 10815 10815 10816 10816 10816 10815 10814 10812 10811 10810 10809 10807 10804 10802 10800 10799 10798 10798 10799 10799 10799 10798 10796 10794 10793 10791 10790 10789 10788 10786 10785 10783 10781 10779 10777 10775 10773 10772 10770 10769 10768 10766 10765 10763 10762 10760 10759 10758 10757 10756 10755 10754 10753 10753 10752 10751 10751 10750 10749 10748 10747 10746 10744 10743 10743
10834 10831 10829 10828 10828 10827 10825 10824 10822 10820 10819 10817 10816 10815 10814 10813 10812 10811 10811 10811 10811 10811 10812 10812 10811 10811 10810 10808 10807 10806 10805 10803 10800 10798 10797 10796 10796 10796 10796 10797 10797 10796 10794 10792 10791 10790 10788 10787 10786 10785 10784 10781 10779 10777 10775 10773 10771 10769 10768 10766 10765 10764 10763 10762 10760 10759 10757 10756 10755 10754 10753 10752 10751 10751 10750 10749 10748 10747 10746 10745 10744 10743 10742 10741 10741
10830 10826 10824 10822 10822 10821 10819 10817 10815 10813 10811 10811 10810 10808 10807 10806 10806 10806 10806 10806 10806 10807 10807 10807 10807 10806 10805 10804 10803 10802 10801 10799 10797 10795 10795 10794 10794 10794 10794 10794 10794 10794 10793 10791 10789 10788 10787 10786 10785 10783 10782 10780 10777 10775 10773 10771 10769 10767 10766 10764 10763 10762 10761 10760 10759 10757 10755 10754 10753 10752 10751 10750 10750 10749 10748 10747 10746 10745 10744 10743 10742 10741 10740 10740 10739
10828 10822 10817 10816 10816 10814 10812 10810 10808 10807 10806 10805 10803 10802 10801 10801 10801 10802 10802 10802 10802 10802 10803 10803 10802 10802 10801 10800 10799 10798 10797 10795 10794 10793 10792 10792 10792 10791 10791 10792 10792 10792 10791 10789 10787 10786 10785 10784 10783 10782 10780 10778 10775 10773 10771 10769 10767 10766 10764 10763 10762 10761 10760 10758 10757 10755 10753 10753 10752 10751 10750 10749 10748 10747 10746 10745 10744 10743 10742 10741 10740 10739 10738 10738 10737
10828 10821 10814 10811 10811 10809 10807 10805 10803 10802 10801 10799 10797 10796 10796 10796 10797 10797 10797 10797 10798 10798 10799 10799 10799 10798 10797 10797 10795 10794 10793 10792 10791 10790 10790 10790 10789 10789 10789 10790 10790 10789 10789 10788 10786 10784 10783 10782 10781 10780 10778 10776 10774 10772 10770 10768 10766 10764 10763 10762 10761 10760 10758 10756 10754 10753 10752 10751 10751 10750 10749 10748 10746 10745 10744 10743 10742 10741 10740 10738 10737 10737 10736 10736 10736
10823 10820 10815 10811 10809 10805 10803 10801 10799 10798 10796 10793 10791 10792 10792 10792 10792 10793 10793 10793 10794 10795 10795 10796 10795 10795 10794 10794 10792 10792 10790 10789 10789 10788 10788 10788 10787 10787 10787 10787 10787 10787 10786 10785 10784 10783 10782 10780 10779 10778 10777 10775 10773 10770 10768 10767 10765 10763 10762 10761 10759 10758 10757 10755 10753 10751 10751 10750 10749 10748 10747 10746 10745 10743 10742 10741 10740 10738 10737 10736 10735 10735 10734 10734 10734
10815 10814 10812 10811 10809 10806 10804 10800 10798 10796 10792 10788 10788 10789 10788 10789 10790 10790 10790 10790 10791 10792 10793 10793 10793 10793 10792 10791 10790 10789 10788 10787 10787 10786 10786 10786 10785 10785 10785 10785 10784 10784 10783 10783 10782 10781 10780 10779 10778 10776 10775 10773 10771 10769 10767 10766 10764 10763 10761 10759 10758 10756 10755 10753 10751 10750 10750 10748 10747 10746 10745 10744 10743 10741 10740 10739 10737 10736 10735 10734 10733 10732 10732 10732 10732
10809 10808 10807 10806 10806 10806 10804 10801 10798 10795 10790 10786 10787 10788 10787 10787 10788 10788 10788 10788 10789 10790 10791 10791 10791 10791 10789 10789 10788 10787 10786 10785 10784 10784 10785 10785 10784 10783 10783 10782 10782 10781 10781 10780 10780 10779 10778 10778 10777 10775 10773 10772 10770 10768 10766 10765 10764 10762 10760 10758 10757 10755 10754 10752 10750 10748 10748 10746 10745 10744 10743 10742 10741 10740 10738 10737 10735 10734 10733 10732 10731 10730 10730 10730 10729
10803 10803 10803 10803 10802 10802 10801 10798 10797 10793 10787 10787 10788 10788 10786 10785 10786 10785 10786 10786 10787 10789 10790 10790 10789 10789 10787 10787 10787 10787 10785 10784 10783 10782 10782 10783 10782 10781 10780 10780 10779 10779 10778 10777 10777 10776 10776 10776 10776 10774 10772 10771 10769 10767 10766 10764 10763 10762 10760 10758 10756 10754 10753 10751 10748 10746 10746 10744 10743 10742 10742 10740 10739 10738 10736 10735 10734 10732 10731 10729 10728 10728 10728 10728 10727
10797 10798 10799 10800 10799 10799 10799 10796 10795 10791 10786 10788 10790 10788 10785 10784 10784 10784 10784 10785 10786 10787 10788 10787 10787 10787 10786 10785 10785 10785 10784 10782 10781 10780 10780 10780 10780 10779 10778 10777 10777 10776 10775 10775 10774 10774 10773 10773 10774 10773 10772 10770 10768 10767 10765 10764 10762 10761 10759 10757 10755 10753 10752 10749 10746 10744 10743 10742 10741 10741 10740 10739 10737 10736 10734 10733 10731 10730 10728 10727 10727 10727 10727 10726 10725
10792 10793 10794 10797 10798 10797 10796 10794 10792 10789 10786 10789 10791 10788 10784 10782 10783 10783 10783 10783 10784 10786 10787 10786 10785 10786 10785 10783 10782 10782 10781 10780 10779 10778 10778 10778 10777 10776 10776 10775 10774 10773 10773 10772 10772 10771 10771 10771 10771 10772 10771 10770 10768 10766 10765 10763 10762 10760 10758 10756 10754 10752 10750 10747 10744 10742 10741 10740 10740 10739 10738 10737 10735 10733 10732 10730 10729 10728 10726 10726 10726 10726 10726 10725 10725
10788 10789 10790 10794 10796 10795 10792 10790 10788 10786 10786 10788 10790 10788 10783 10780 10780 10781 10781 10782 10782 10783 10786 10786 10784 10785 10785 10782 10780 10780 10779 10778 10777 10776 10776 10775 10774 10774 10774 10773 10772 10771 10770 10770 10769 10769 10769 10769 10770 10770 10769 10768 10768 10766 10764 10763 10761 10760 10757 10755 10753 10751 10748 10744 10742 10741 10739 10738 10738 10738 10737 10735 10733 10731 10730 10728 10727 10726 10725 10725 10725 10725 10725 10725 10724
10784 10785 10786 10788 10791 10791 10789 10786 10785 10784 10785 10785 10786 10786 10782 10779 10777 10778 10780 10780 10780 10781 10783 10784 10783 10784 10784 10782 10781 10779 10778 10777 10776 10775 10774 10774 10773 10772 10771 10771 10770 10769 10768 10767 10767 10767 10767 10768 10768 10768 10768 10767 10767 10766 10764 10762 10760 10758 10756 10754 10752 10751 10748 10742 10739 10738 10737 10738 10738 10736 10734 10733 10731 10730 10728 10727 10726 10725 10725 10725 10725 10725 10725 10725 10724
10778 10780 10783 10782 10784 10787 10785 10783 10781 10781 10784 10781 10779 10780 10779 10777 10775 10776 10778 10778 10778 10779 10780 10781 10781 10782 10781 10781 10781 10779 10777 10776 10775 10774 10773 10772 10771 10770 10769 10768 10767 10767 10766 10766 10765 10766 10766 10766 10766 10766 10766 10766 10765 10764 10763 10761 10759 10758 10755 10753 10752 10751 10748 10742 10737 10736 10736 10737 10736 10734 10733 10732 10731 10729 10728 10727 10725 10725 10725 10725 10725 10725 10725 10724 10724
10773 10776 10777 10777 10778 10781 10780 10778 10776 10776 10780 10776 10771 10773 10775 10775 10774 10774 10776 10776 10777 10778 10779 10779 10780 10781 10779 10779 10779 10777 10776 10774 10772 10772 10770 10769 10769 10768 10767 10766 10766 10765 10765 10765 10764 10764 10764 10764 10764 10765 10765 10764 10764 10763 10762 10760 10759 10757 10755 10753 10752 10751 10749 10743 10735 10733 10735 10736 10735 10733 10733 10732 10730 10729 10728 10727 10726 10725 10725 10725 10725 10725 10725 10724 10723
10768 10771 10772 10773 10775 10775 10775 10773 10768 10767 10772 10770 10767 10770 10773 10774 10775 10774 10773 10775 10777 10778 10779 10780 10782 10783 10780 10778 10777 10776 10774 10772 10770 10769 10768 10767 10766 10766 10765 10765 10764 10763 10763 10762 10762 10762 10762 10762 10763 10763 10764 10763 10763 10762 10761 10759 10758 10756 10754 10752 10750 10749 10747 10743 10736 10733 10735 10736 10735 10733 10733 10731 10730 10728 10727 10726 10726 10725 10725 10725 10725 10724 10724 10723 10722
10762 10765 10766 10770 10772 10770 10769 10767 10761 10760 10765 10768 10768 10770 10771 10772 10773 10772 10772 10775 10778 10778 10780 10781 10782 10781 10779 10777 10776 10774 10772 10770 10768 10767 10766 10765 10765 10764 10763 10762 10762 10761 10760 10760 10760 10760 10760 10760 10761 10762 10762 10762 10761 10761 10760 10758 10756 10754 10752 10750 10748 10745 10744 10741 10738 10736 10736 10736 10735 10734 10733 10731 10729 10727 10725 10725 10725 10725 10724 10724 10724 10723 10723 10722 10721
10756 10759 10761 10764 10766 10765 10763 10762 10759 10759 10763 10766 10767 10767 10768 10768 10768 10768 10770 10774 10776 10778 10780 10781 10781 10776 10774 10775 10774 10772 10770 10767 10765 10765 10764 10763 10762 10762 10761 10760 10759 10758 10758 10758 10758 10758 10758 10758 10759 10759 10759 10759 10759 10759 10758 10756 10754 10752 10750 10748 10745 10743 10742 10741 10740 10739 10737 10736 10735 10735 10733 10730 10727 10725 10724 10724 10724 10724 10724 10723 10722 10722 10721 10720 10720
10749 10753 10755 10758 10761 10760 10758 10758 10759 10759 10761 10762 10763 10764 10764 10765 10765 10766 10768 10771 10773 10776 10778 10780 10779 10772 10768 10771 10770 10769 10769 10766 10764 10763 10762 10762 10760 10759 10758 10757 10756 10755 10755 10755 10755 10756 10756 10756 10756 10756 10756 10756 10756 10756 10755 10754 10752 10750 10748 10746 10743 10740 10740 10741 10740 10739 10737 10736 10736 10735 10733 10729 10726 10725 10724 10723 10722 10722 10722 10722 10721 10721 10720 10719 10719
10742 10747 10749 10750 10753 10754 10752 10755 10757 10756 10756 10758 10760 10761 10761 10762 10763 10764 10765 10768 10770 10773 10775 10776 10776 10770 10765 10767 10768 10767 10768 10767 10766 10764 10762 10760 10758 10756 10755 10753 10753 10753 10752 10752 10752 10753 10754 10755 10754 10754 10754 10754 10754 10753 10753 10751 10750 10748 10746 10745 10742 10738 10738 10740 10739 10737 10737 10736 10735 10734 10732 10728 10725 10724 10723 10722 10721 10721 10721 10720 10720 10720 10720 10719 10718
10735 10740 10742 10742 10745 10747 10747 10750 10751 10751 10753 10755 10757 10758 10758 10759 10760 10762 10762 10764 10767 10769 10771 10771 10772 10769 10765 10764 10765 10766 10766 10766 10767 10765 10763 10760 10755 10753 10753 10751 10750 10750 10750 10750 10750 10750 10751 10752 10752 10752 10752 10751 10751 10751 10750 10749 10747 10746 10744 10743 10740 10737 10738 10738 10736 10736 10736 10735 10734 10733 10731 10727 10724 10723 10723 10722 10721 10720 10719 10719 10719 10719 10718 10718 10717
10728 10732 10733 10735 10739 10742 10743 10744 10746 10748 10750 10752 10753 10754 10755 10755 10756 10758 10759 10760 10763 10765 10767 10768 10768 10767 10764 10762 10763 10764 10763 10764 10765 10763 10761 10758 10754 10753 10752 10748 10746 10746 10747 10747 10747 10748 10748 10749 10749 10749 10749 10749 10748 10748 10748 10746 10745 10743 10741 10739 10737 10736 10737 10736 10734 10734 10734 10733 10732 10730 10729 10726 10724 10723 10722 10721 10720 10719 10718 10718 10717 10717 10717 10717 10716
10721 10725 10726 10728 10733 10736 10738 10740 10742 10745 10746 10747 10749 10750 10751 10752 10753 10754 10756 10758 10759 10761 10763 10765 10764 10764 10762 10760 10760 10761 10762 10763 10762 10757 10757 10757 10755 10755 10753 10747 10744 10743 10743 10743 10744 10745 10746 10746 10746 10746 10747 10747 10746 10745 10745 10743 10742 10740 10738 10736 10735 10735 10734 10733 10733 10733 10733 10733 10732 10729 10727 10725 10724 10722 10721 10720 10719 10718 10717 10716 10716 10716 10716 10715 10715
10714 10718 10720 10722 10726 10730 10733 10736 10738 10741 10742 10743 10744 10745 10747 10749 10749 10750 10753 10755 10756 10757 10759 10761 10760 10760 10758 10756 10757 10758 10760 10760 10757 10753 10755 10756 10755 10755 10752 10746 10742 10739 10739 10740 10741 10742 10743 10743 10744 10744 10744 10744 10743 10743 10742 10740 10739 10737 10735 10733 10733 10733 10732 10732 10731 10731 10731 10731 10732 10730 10727 10725 10723 10720 10719 10719 10717 10716 10716 10715 10715 10715 10714 10713 10713
10708 10712 10715 10717 10720 10724 10728 10731 10733 10737 10738 10740 10740 10741 10743 10745 10747 10747 10749 10751 10752 10753 10755 10756 10756 10755 10754 10753 10753 10755 10757 10756 10753 10751 10752 10753 10752 10750 10746 10742 10738 10736 10736 10737 10739 10740 10740 10740 10741 10741 10741 10740 10740 10740 10739 10737 10736 10734 10732 10731 10731 10730 10729 10729 10730 10730 10730 10730 10730 10730 10728 10726 10723 10720 10719 10717 10716 10715 10715 10714 10714 10713 10712 10711 10710
10704 10708 10711 10714 10716 10719 10722 10725 10727 10731 10734 10736 10738 10738 10740 10742 10744 10745 10746 10748 10749 10750 10751 10751 10751 10749 10748 10748 10748 10750 10752 10752 10750 10749 10748 10748 10747 10743 10739 10736 10734 10734 10733 10734 10736 10738 10737 10737 10738 10738 10737 10737 10736 10736 10735 10734 10732 10731 10730 10729 10729 10728 10726 10725 10726 10728 10728 10728 10727 10726 10726 10724 10721 10719 10718 10715 10714 10715 10714 10713 10712 10710 10709 10708 10707
10700 10704 10708 10711 10713 10714 10717 10719 10721 10725 10729 10733 10734 10736 10737 10738 10740 10742 10743 10744 10745 10747 10747 10747 10746 10742 10742 10744 10744 10745 10747 10746 10745 10743 10743 10742 10741 10737 10734 10731 10730 10731 10731 10731 10733 10734 10734 10734 10735 10734 10734 10733 10732 10732 10731 10730 10729 10728 10727 10726 10726 10726 10723 10721 10722 10724 10725 10725 10724 10723 10721 10720 10718 10717 10716 10714 10713 10714 10714 10711 10709 10708 10707 10705 10704
10697 10702 10706 10709 10710 10710 10712 10714 10716 10720 10723 10727 10731 10732 10731 10732 10736 10737 10739 10740 10741 10743 10743 10744 10741 10736 10737 10741 10741 10741 10742 10741 10739 10738 10738 10736 10734 10731 10729 10728 10728 10729 10729 10729 10730 10730 10731 10731 10731 10731 10730 10728 10727 10727 10727 10727 10726 10725 10724 10723 10722 10722 10721 10719 10718 10719 10721 10721 10721 10719 10718 10716 10714 10713 10713 10712 10711 10712 10712 10709 10707 10705 10704 10703 10701
10695 10701 10703 10703 10705 10706 10709 10712 10714 10715 10717 10721 10726 10726 10724 10726 10730 10732 10734 10735 10737 10739 10741 10741 10737 10732 10734 10736 10735 10735 10735 10733 10732 10732 10731 10729 10727 10726 10725 10726 10726 10726 10727 10727 10727 10727 10727 10727 10727 10727 10725 10724 10723 10723 10723 10723 10722 10721 10720 10720 10719 10718 10718 10716 10715 10714 10716 10717 10717 10716 10715 10713 10711 10711 10711 10710 10709 10709 10708 10706 10705 10704 10702 10700 10698
10692 10698 10698 10696 10697 10701 10707 10712 10713 10711 10711 10714 10719 10720 10719 10720 10724 10726 10729 10731 10732 10734 10737 10738 10734 10730 10731 10731 10730 10729 10727 10727 10726 10726 10726 10724 10723 10722 10722 10723 10723 10723 10723 10723 10724 10724 10724 10723 10723 10722 10721 10720 10719 10719 10719 10719 10719 10717 10716 10716 10715 10714 10714 10713 10712 10711 10711 10712 10712 10712 10712 10710 10709 10709 10709 10707 10706 10705 10705 10703 10702 10702 10700 10698 10696
10688 10694 10694 10689 10689 10694 10701 10706 10708 10705 10703 10706 10711 10714 10715 10715 10717 10720 10723 10725 10727 10729 10732 10734 10733 10730 10729 10727 10725 10722 10721 10722 10723 10722 10722 10721 10720 10719 10719 10719 10719 10719 10719 10719 10720 10720 10719 10718 10717 10717 10716 10716 10715 10714 10714 10715 10715 10714 10713 10712 10711 10711 10711 10710 10709 10708 10707 10707 10707 10707 10708 10707 10706 10706 10706 10704 10703 10701 10701 10699 10698 10698 10697 10696 10694
10682 10686 10685 10681 10678 10681 10687 10693 10697 10696 10692 10696 10703 10707 10709 10710 10712 10715 10717 10718 10721 10724 10726 10729 10729 10727 10726 10722 10719 10718 10716 10717 10718 10718 10718 10717 10716 10715 10715 10715 10715 10715 10715 10715 10715 10715 10715 10713 10712 10712 10711 10711 10710 10710 10710 10710 10711 10711 10710 10709 10708 10707 10707 10707 10706 10705 10704 10704 10703 10702 10703 10703 10703 10702 10701 10701 10699 10698 10697 10696 10695 10694 10693 10691 10691
10670 10667 10664 10664 10662 10663 10670 10679 10686 10686 10683 10687 10694 10699 10702 10703 10706 10709 10710 10711 10715 10718 10721 10724 10722 10719 10718 10715 10713 10713 10712 10713 10713 10713 10713 10712 10712 10711 10711 10711 10711 10710 10710 10710 10710 10710 10710 10708 10707 10706 10706 10705 10705 10705 10705 10705 10706 10706 10706 10706 10705 10705 10704 10703 10702 10702 10701 10701 10700 10699 10699 10698 10698 10698 10698 10697 10696 10695 10694 10693 10692 10690 10688 10687 10686
10657 10653 10652 10655 10653 10654 10660 10667 10674 10675 10675 10680 10687 10692 10695 10697 10700 10702 10702 10704 10710 10713 10715 10717 10714 10710 10708 10707 10707 10706 10706 10707 10708 10708 10708 10707 10707 10707 10707 10707 10707 10706 10706 10705 10705 10704 10704 10703 10702 10702 10701 10701 10701 10701 10701 10701 10701 10701 10701 10701 10702 10701 10701 10700 10699 10698 10697 10697 10697 10696 10695 10695 10694 10695 10694 10693 10692 10691 10690 10689 10688 10687 10685 10683 10682
10651 10650 10651 10654 10652 10653 10655 10659 10665 10666 10668 10676 10684 10687 10688 10692 10695 10696 10696 10699 10704 10707 10709 10709 10706 10703 10701 10700 10700 10701 10702 10703 10703 10703 10702 10702 10703 10703 10703 10703 10702 10701 10701 10700 10700 10699 10698 10698 10697 10697 10697 10696 10696 10697 10697 10696 10697 10697 10697 10697 10697 10697 10697 10696 10695 10694 10693 10693 10693 10692 10692 10691 10691 10691 10690 10689 10688 10687 10687 10686 10685 10683 10681 10679 10679
10647 10648 10650 10651 10650 10650 10651 10654 10659 10661 10666 10674 10680 10682 10683 10686 10690 10691 10693 10696 10699 10702 10703 10701 10699 10697 10696 10695 10695 10696 10697 10697 10697 10698 10698 10698 10698 10698 10698 10697 10696 10696 10695 10694 10694 10694 10693 10692 10692 10692 10692 10691 10692 10692 10692 10692 10692 10692 10693 10692 10692 10692 10692 10691 10691 10690 10689 10688 10688 10688 10688 10687 10687 10686 10686 10685 10685 10684 10684 10683 10682 10680 10678 10677 10676